User: anonymous   Login
Location: Vancouver
(49.2500°N, 123.1330°W)
Time: 12:11:28
(UTC-07:00)
Language:

ERS-2 - Orbit

View from above orbital plane
View from above orbital plane
View from above satellite
View from above satellite

Ground track
Ground track

The orbit data is extracted from the following two-line orbital elements,

1 23560U 95021A   15214.81658812  .00004091  00000-0  21619-3 0  9991
2 23560 098.5135 109.2830 0005435 098.6326 261.5520 15.16170132 71504
Epoch (UTC): 02 August 2015 19:35:53
Eccentricity: 0.0005435
inclination: 98.5135°
perigee height: 513 km
apogee height: 521 km
right ascension of ascending node: 109.2830°
argument of perigee: 98.6326°
revolutions per day: 15.16170132
mean anomaly at epoch: 261.5520°
orbit number at epoch: 7150

The dashed part of the orbit path shows where the satellite is in the earth's shadow,  

DLR